Preview of NWS' New Version of Forecast
This preview is not operational and should not be used for support decisions.

Regional Weather Roundup (RWR)

Issued by National Weather Service (NWS)

                            
000
ASUS43 KTOP 181559
RWRKS 

WEATHER ROUNDUP FOR KANSAS
NATIONAL WEATHER SERVICE GOODLAND KS
1100 AM CDT SUN AUG 18 2019

NOTE:  "FAIR" INDICATES FEW OR NO CLOUDS BELOW 12,000 FEET WITH NO
SIGNIFICANT WEATHER AND/OR OBSTRUCTIONS TO VISIBILITY.

KSZ001>006-013>018-027>032-041>047-181700-
NORTHWEST KANSAS
  
CITY           SKY/WX    TMP DP  RH WIND       PRES   REMARKS
GOODLAND       SUNNY     70  60  70 NE5       30.02S                  
HAYS           SUNNY     78  62  57 W7        30.09R                  
HILL CITY      SUNNY     75  62  64 N8        29.96S                  
RUSSELL        SUNNY     78  62  57 NW8       29.92R                  
$$

KSZ061>065-074>080-084>089-181700-
SOUTHWEST KANSAS
  
CITY           SKY/WX    TMP DP  RH WIND       PRES   REMARKS
DODGE CITY     SUNNY     83  61  47 S20       29.92R                  
GARDEN CITY    SUNNY     80  63  55 S10       29.94R                  
GREAT BEND     SUNNY     81  62  52 S16       29.91R                  
LIBERAL        SUNNY     82  65  56 E8        29.93S                  
$$

KSZ066>073-081>083-090>101-181700-
SOUTHEAST KANSAS
  
CITY           SKY/WX    TMP DP  RH WIND       PRES   REMARKS
CHANUTE        MOSUNNY   77  68  73 S17       29.86R                  
COFFEYVILLE    MOSUNNY   73  70  90 NE6       29.87F                  
HUTCHINSON     SUNNY     84  66  54 S14       29.87R                  
MEDICINE LODGE   N/A     82  62  50 SE14G25   29.88R                  
NEWTON         SUNNY     76  67  73 S15       29.89R                  
PARSONS        LGT RAIN  72  70  93 SE9       29.88F                  
WICHITA INTL   MOSUNNY   79  64  60 SE18      29.87S                  
WICHITA JABRA  SUNNY     78  65  63 S13       29.87R                  
WICHITA MCCONL SUNNY     79  62  54 SE14      29.88S                  
WINFIELD       SUNNY     80  62  54 SE16G26   29.88F                  
$$

KSZ007>012-019>026-033>040-048>060-102>105-181700-
NORTHEAST KANSAS
  
CITY           SKY/WX    TMP DP  RH WIND       PRES   REMARKS
CONCORDIA      SUNNY     79  68  69 NW6       29.90R                  
EMPORIA        SUNNY     83  67  58 S14       29.85R                  
LAWRENCE       SUNNY     77  68  73 E7        29.87R                  
MANHATTAN      SUNNY     84  64  50 W9        29.88R                  
OLATHE IND     SUNNY     76  68  76 NE9       29.89R                  
OLATHE EXE     SUNNY     75  69  81 NE9       29.90R                  
SALINA         SUNNY     80  64  58 NW13      29.89R                  
TOPEKA BILLARD SUNNY     83  66  56 NW5       29.87R                  
TOPEKA FORBES  SUNNY     84  65  52 N10       29.88R                  
$$